"Pseudo-MPEC" for P10LqAK

Created 2019 Jan 25 19:18:38 UT using Find_Orb

Click here for an explanation of pseudo-MPECs

 
 Astrometry: 
     P10LqAK  C2018 12 12*JfPcYZnhTcc]URSYy?BLE^KE'a8AstrometryeE,u%?/MbckKDNF51
     P10LqAK  C2018 12 126)M[gxZH9rg^5s4n9Cv!ag_o`5PTdQjm$LZV,\pYITHCh6fl7M3qF51
     P10LqAK  C2018 12 12edV2B\Fxi(HHQ#ptEf01redacted;3!8Fr$)*%ppjZLVV/.R*WT\F51
     P10LqAK  C2018 12 12kWv]XIb;Sg1#2E)h!lk/DOfx1VB4!q%XGbjp$+#FZXadVEUuFS`GF51
     P10LqAK  C2019 01 11w!VhK[sO'j/9+Mm*m(_BNl(OV?dArclick$?M5ayJ4(QXkDd?kfIF51
     P10LqAK  C2019 01 11=Le\6`T;Y\*@[TUc_3T]QsNqvA?8!GrhfT$Lcs,E#L1[CpowSK\rF51
     P10LqAK  C2019 01 11;Qu'_TSH'9G+fMp!JgJHtKMVwN3hhereBlv]wK\%r_-1,lQ4bS^)F51
     P10LqAK  C2019 01 11%Hn8nDPkon'O@f\,s(]-DjkNH,RP?f05hXN\$'KLcmO6y6cc[/7)F51
     P10LqAK  C2019 01 12.17185 06 25 30.94 +58 45 51.6    ~1C5I 21.5 GVNEOCPI52
     P10LqAK  C2019 01 12.18371 06 25 29.47 +58 45 54.1    ~1C5I 21.8 GVNEOCPI52
     P10LqAK  C2019 01 12.18963 06 25 28.69 +58 45 56.1    ~1C5I 21.5 GVNEOCPI52
     P10LqAK KC2019 01 24JRUxh1VJ]for\3]Ot(s8s\UTkF7`i$u-VE_1w'w-QZiqs[kUT^Nj291
     P10LqAK KC2019 01 24],qDbp)MmeJ^D[V=p!rJ9!n-7*!e'8Kx]3I@:+?q#o]32-i^1(9%291
     P10LqAK KC2019 01 24]ui@b8`/FAZHyO_f;lUS#8m\'xlLH]/CM)+?C-(i)b7\kPH,vX:y291
     P10LqAK KC2019 01 24#-ffPmo5f9vo\%explanation1N;W$=!vWTFjw#MU09u:`kOL^Lu291

Station data:
(291) LPL/Spacewatch II  (N31.961669 W111.599905)  US/Arizona.  Observers J.
   V. Scotti, R. S. McMillan. 1.8-m f/2.7 reflector + CCD.
(F51) Pan-STARRS 1, Haleakala  (N20.707235 W156.255910)  US/Hawaii.
   Observers N. Primak, A. Schultz, S. Watters, J. Thiel, T. Goggia. Measurer
   PS1 Science Consortium. 1.8-m Ritchey-Chrétien + CCD.
(I52) Steward Observatory, Mt. Lemmon Station  (N32.442547 W110.788920)
   US/Arizona.  Observers B. M. Africano, E. J. Christensen, G. A. Farneth,
   D. C. Fuls, A. R. Gibbs, A. D. Grauer, H. Groeller, J. A. Johnson, R. A.
   Kowalski, S. M. Larson, G. J. Leonard, R. L. Seaman, F. C. Shelly. 1.0-m
   reflector + CCD.

Orbital elements:  P10LqAK
   Perihelion 2018 Feb 24.893274 +/- 0.111 TT = 21:26:18 (JD 2458174.393274)
Epoch 2019 Jan 24.0 TT = JDT 2458507.5   Earth MOID: 0.7617   AutoNEOCP
M 136.88270677 +/- 0.050            (J2000 ecliptic)
n   0.41092747 +/- 2.03e-5          Peri.  278.61215 +/- 0.040
a   1.79181263 +/- 5.91e-5          Node    50.26390 +/- 0.0034
e   0.0583486 +/- 4.93e-5           Incl.   22.05950 +/- 0.0017
P   2.40/876.05d           H 19.4   G  0.15   U  5.5  
q 1.68726278 +/- 4.7e-5    Q 1.89636248 +/- 0.000147
From 15 observations 2018 Dec. 12-2019 Jan. 24; mean residual 0".26
Residuals in arcseconds: 
181212 F51  .05+  .03+    190111 F51  .26+  .13+    190112 I52  .23+  .35+    
181212 F51  .01+  .17-    190111 F51  .19+  .19+    190124 291  .02+  .20+    
181212 F51  .07+  .07+    190111 F51  .22+  .14+    190124 291  .00   .16-    
181212 F51  .14-  .08+    190112 I52  .98-  .48-    190124 291  .04+  .09-    
190111 F51  .08+  .16+    190112 I52  .07+  .44-    190124 291  .03-  .09+    

Ephemerides (geocentric):
Date (UTC) HH   RA              Dec         delta   r     elong  mag " sig PA
---- -- -- --  -------------   -----------  ------ ------ -----  --- ---- ---
2019 01 25 19  06 01 30.348   +58 33 34.16  1.0635 1.8716 132.1 22.0 .217  16
2019 01 25 20  06 01 27.178   +58 33 23.49  1.0638 1.8717 132.0 22.0 .218  15
2019 01 25 21  06 01 24.016   +58 33 12.78  1.0640 1.8717 132.0 22.0 .220  15
2019 01 25 22  06 01 20.862   +58 33 02.02  1.0643 1.8717 132.0 22.0 .221  15
2019 01 25 23  06 01 17.717   +58 32 51.23  1.0645 1.8717 131.9 22.0 .222  15
2019 01 26 00  06 01 14.580   +58 32 40.39  1.0648 1.8717 131.9 22.0 .224  15
2019 01 26 01  06 01 11.451   +58 32 29.51  1.0651 1.8718 131.9 22.0 .225  15
2019 01 26 02  06 01 08.331   +58 32 18.59  1.0653 1.8718 131.8 22.0 .226  15
2019 01 26 03  06 01 05.220   +58 32 07.63  1.0656 1.8718 131.8 22.0 .228  15
2019 01 26 04  06 01 02.116   +58 31 56.63  1.0658 1.8718 131.8 22.0 .229  15
2019 01 26 05  06 00 59.022   +58 31 45.59  1.0661 1.8718 131.8 22.0 .230  15
2019 01 26 06  06 00 55.935   +58 31 34.51  1.0663 1.8719 131.7 22.0 .232  14
2019 01 26 07  06 00 52.858   +58 31 23.39  1.0666 1.8719 131.7 22.0 .233  14
2019 01 26 08  06 00 49.788   +58 31 12.23  1.0668 1.8719 131.7 22.0 .234  14
2019 01 26 09  06 00 46.727   +58 31 01.03  1.0671 1.8719 131.6 22.0 .236  14
2019 01 26 10  06 00 43.675   +58 30 49.78  1.0674 1.8719 131.6 22.0 .237  14
2019 01 26 11  06 00 40.631   +58 30 38.50  1.0676 1.8719 131.6 22.0 .238  14
2019 01 26 12  06 00 37.595   +58 30 27.18  1.0679 1.8720 131.5 22.0 .240  14
2019 01 26 13  06 00 34.568   +58 30 15.82  1.0681 1.8720 131.5 22.0 .241  14
2019 01 26 14  06 00 31.550   +58 30 04.41  1.0684 1.8720 131.5 22.0 .242  14
2019 01 26 15  06 00 28.540   +58 29 52.97  1.0687 1.8720 131.5 22.0 .244  14
2019 01 26 16  06 00 25.538   +58 29 41.49  1.0689 1.8720 131.4 22.0 .245  13
2019 01 26 17  06 00 22.545   +58 29 29.97  1.0692 1.8721 131.4 22.0 .246  13
2019 01 26 18  06 00 19.560   +58 29 18.41  1.0694 1.8721 131.4 22.0 .248  13
2019 01 26 19  06 00 16.584   +58 29 06.81  1.0697 1.8721 131.3 22.0 .249  13
2019 01 26 20  06 00 13.616   +58 28 55.17  1.0700 1.8721 131.3 22.0 .250  13
2019 01 26 21  06 00 10.657   +58 28 43.49  1.0702 1.8721 131.3 22.0 .252  13
2019 01 26 22  06 00 07.707   +58 28 31.77  1.0705 1.8722 131.2 22.0 .253  13
2019 01 26 23  06 00 04.764   +58 28 20.02  1.0707 1.8722 131.2 22.0 .254  13
2019 01 27 00  06 00 01.831   +58 28 08.22  1.0710 1.8722 131.2 22.0 .256  13
2019 01 27 01  05 59 58.906   +58 27 56.38  1.0713 1.8722 131.1 22.0 .257  13
2019 01 27 02  05 59 55.989   +58 27 44.51  1.0715 1.8722 131.1 22.0 .259  12
2019 01 27 03  05 59 53.081   +58 27 32.60  1.0718 1.8723 131.1 22.0 .260  12
2019 01 27 04  05 59 50.182   +58 27 20.65  1.0720 1.8723 131.1 22.0 .261  12
2019 01 27 05  05 59 47.291   +58 27 08.66  1.0723 1.8723 131.0 22.0 .263  12
2019 01 27 06  05 59 44.408   +58 26 56.63  1.0726 1.8723 131.0 22.0 .264  12
2019 01 27 07  05 59 41.534   +58 26 44.57  1.0728 1.8723 131.0 22.0 .266  12
2019 01 27 08  05 59 38.669   +58 26 32.46  1.0731 1.8723 130.9 22.0 .267  12
2019 01 27 09  05 59 35.812   +58 26 20.32  1.0734 1.8724 130.9 22.0 .268  12
2019 01 27 10  05 59 32.964   +58 26 08.14  1.0736 1.8724 130.9 22.0 .270  12
2019 01 27 11  05 59 30.124   +58 25 55.92  1.0739 1.8724 130.8 22.0 .271  12
2019 01 27 12  05 59 27.293   +58 25 43.66  1.0741 1.8724 130.8 22.0 .272  12
2019 01 27 13  05 59 24.470   +58 25 31.37  1.0744 1.8724 130.8 22.0 .274  11
2019 01 27 14  05 59 21.656   +58 25 19.04  1.0747 1.8725 130.8 22.0 .275  11
2019 01 27 15  05 59 18.851   +58 25 06.67  1.0749 1.8725 130.7 22.0 .277  11
2019 01 27 16  05 59 16.054   +58 24 54.26  1.0752 1.8725 130.7 22.0 .278  11
2019 01 27 17  05 59 13.265   +58 24 41.82  1.0755 1.8725 130.7 22.0 .279  11
2019 01 27 18  05 59 10.486   +58 24 29.33  1.0757 1.8725 130.6 22.0 .281  11